User: anonymous
Location: Caltech
(34.1382°N, 118.1253°W)
Time: 14:28:19
(UTC-07:00)
Language:

IRS-1A Rocket - Orbit

View from above orbital plane
View from above orbital plane
View from above satellite
View from above satellite

Ground track
Ground track

The orbit data is extracted from the following two-line orbital elements,

1 18961U 88021B   14259.42913542 -.00000234  00000-0 -12490-3 0  7229
2 18961 099.2812 234.3511 0055957 100.8976 050.0508 14.00705331354766
Epoch (UTC): 16 September 2014 10:17:57
Eccentricity: 0.0055957
inclination: 99.2812°
perigee height: 850 km
apogee height: 932 km
right ascension of ascending node: 234.3511°
argument of perigee: 100.8976°
revolutions per day: 14.00705331
mean anomaly at epoch: 50.0508°
orbit number at epoch: 35476

The dashed part of the orbit path shows where the satellite is in the earth's shadow,  

DLR